GFSNW_sfc_30mbdewp_195.txt.gz
Dewpoint
56 56 55 54 51 50 49 44 37 49 44 35 34 32 33 28 27 31 28 29 25 22 22 22 21 19 18 21 20 17 18 15 13 13 15 15 14 14 15 12 9 17 20 18
55 55 53 52 50 49 45 39 41 48 42 32 30 34 31 30 28 28 29 28 27 25 23 21 23 22 24 23 21 19 18 16 13 10 15 16 15 15 14 15 15 14 15 16
55 54 53 51 50 48 43 39 33 40 40 38 33 31 30 31 31 29 29 27 25 26 24 24 22 23 23 25 24 25 20 17 15 13 13 16 14 14 14 15 14 14 16 16
54 53 52 50 49 49 42 38 34 36 30 34 32 30 33 31 31 31 29 26 25 27 23 23 23 24 25 25 24 24 22 20 20 19 19 19 17 17 21 20 18 18 18 19
53 52 50 49 49 47 40 35 35 38 35 36 33 33 31 32 32 33 31 28 27 29 27 26 26 27 27 26 26 26 28 20 23 22 23 23 22 22 25 26 25 24 22 22
51 50 49 48 49 45 40 41 41 36 34 33 32 31 33 31 33 32 31 28 28 30 30 32 32 32 31 29 29 28 28 26 26 21 25 27 23 25 24 22 21 19 17 20
49 49 49 49 48 44 42 41 38 34 30 32 32 33 32 33 33 30 33 33 33 34 36 34 34 34 33 33 32 31 28 28 26 22 24 16 18 20 19 19 19 20 21 21
49 49 48 48 47 46 42 42 38 34 30 33 33 33 33 33 34 33 32 33 35 36 34 30 26 25 26 27 30 30 31 27 25 22 21 22 16 17 16 19 17 23 26 31
47 47 47 47 47 45 43 42 41 37 31 31 32 32 31 29 28 28 29 34 38 38 33 29 22 18 19 16 13 24 28 29 26 24 18 13 12 28 31 29 23 32 32 31
47 47 47 46 46 45 43 41 41 35 31 33 33 30 30 30 28 26 28 27 33 35 29 24 22 20 19 17 14 12 21 25 23 22 20 21 30 34 34 22 22 33 33 33
47 46 45 45 45 44 41 40 39 33 30 32 31 29 29 30 29 24 27 25 29 30 24 25 24 23 24 24 21 17 14 14 16 20 18 15 31 31 28 31 35 35 33 34
45 44 44 41 41 41 40 37 40 35 28 29 29 29 29 29 29 26 29 20 27 30 24 24 23 22 20 23 17 19 21 25 22 23 22 21 31 28 30 33 35 33 33 34
41 40 40 40 40 38 36 36 34 30 25 23 23 23 24 30 30 31 24 27 29 29 28 26 26 22 21 15 17 18 19 31 22 22 21 25 27 31 33 35 34 36 32 31
40 40 39 40 40 37 34 32 33 30 26 15 17 28 25 27 29 29 28 25 29 30 29 24 23 21 21 17 15 15 15 17 19 20 19 18 22 27 25 27 32 34 34 34
39 39 39 40 38 36 34 34 35 32 22 19 21 25 22 24 26 28 29 27 25 26 24 25 23 24 22 20 21 18 20 18 17 13 13 14 17 23 23 27 23 22 23 28
39 38 38 38 36 31 28 27 33 35 30 22 10 23 24 23 23 23 27 29 28 27 26 25 26 26 24 20 17 14 15 17 19 17 18 20 22 25 25 22 23 25 26 27
38 37 38 37 35 33 26 25 31 35 31 23 12 14 20 23 23 24 24 29 28 28 26 25 24 25 26 23 20 18 20 21 22 23 23 21 21 23 23 25 26 27 27 29
37 36 35 33 32 30 28 32 36 32 29 27 17 16 18 21 16 16 27 23 26 26 24 25 23 24 25 22 19 19 19 20 22 23 24 25 25 25 26 32 35 33 28 26
36 35 31 27 28 26 32 38 35 33 23 19 23 16 6 23 24 26 25 29 21 27 25 23 24 25 21 20 22 22 21 22 22 24 26 27 28 33 35 35 35 34 32 34
32 28 22 21 31 36 32 27 26 24 27 28 22 24 19 18 16 13 16 25 23 21 24 28 25 22 23 23 24 24 31 34 30 27 28 32 33 33 33 33 33 34 34 36
28 25 28 32 35 27 25 23 19 21 20 23 24 24 19 22 16 15 19 17 21 18 18 23 22 23 29 34 33 33 32 32 32 33 33 32 31 31 29 31 31 32 34 34
30 32 32 29 26 23 19 18 22 20 17 21 21 24 27 28 30 24 18 16 20 14 23 24 20 28 32 32 32 31 30 30 29 29 29 29 28 28 29 30 29 30 31 32
31 26 24 21 22 15 13 10 17 17 21 25 27 24 28 29 30 26 21 18 17 22 21 19 25 30 31 32 32 32 30 29 28 28 28 28 28 28 28 28 30 30 30 31
23 18 15 13 15 17 17 17 19 22 26 26 27 26 25 27 25 24 21 20 23 18 16 19 27 29 30 31 32 31 29 28 27 27 27 27 26 26 27 28 28 29 29 29
24 20 8 15 17 20 21 22 25 26 26 26 26 26 27 24 23 25 24 20 18 19 19 25 27 29 30 29 29 28 27 27 27 28 27 27 26 27 27 28 28 28 28 27
26 24 20 20 21 20 20 22 24 27 27 31 29 24 22 20 22 20 19 18 17 21 25 27 27 26 27 27 28 28 29 29 28 29 28 27 27 27 27 27 27 27 27 26
25 21 23 20 20 20 20 21 22 29 30 24 26 22 22 26 21 21 24 19 22 24 26 26 25 25 27 27 29 29 30 30 29 29 29 28 28 28 26 25 25 25 25 25

GFSNW_sfc_30mbdewp_201.txt.gz
Dewpoint
54 55 55 55 55 54 52 46 42 48 51 40 40 37 39 38 33 32 30 29 26 28 24 23 19 17 19 20 19 18 18 17 14 15 15 17 16 15 16 13 11 16 17 15
54 54 55 54 54 53 48 43 41 48 48 35 35 37 37 36 32 30 30 30 29 27 25 23 24 23 26 23 21 21 21 19 17 17 16 17 15 15 16 18 18 18 16 16
52 54 54 54 53 53 49 42 34 40 41 41 36 36 35 35 36 33 31 29 29 30 29 27 26 26 26 26 25 25 24 23 22 20 17 19 19 19 19 20 22 20 19 20
50 52 54 54 53 53 48 41 35 37 33 35 37 37 36 34 34 34 34 34 32 32 30 31 30 32 32 30 29 28 27 25 22 21 21 21 21 20 21 20 19 18 17 16
50 51 53 53 52 52 50 38 36 38 36 36 37 36 35 35 35 35 33 33 34 34 31 31 29 32 32 31 30 28 28 27 25 22 22 21 21 21 21 21 21 20 20 20
49 50 51 53 52 52 45 42 42 39 36 35 34 34 35 35 36 35 36 34 32 31 33 35 36 36 36 34 32 31 31 29 26 20 21 22 20 21 21 21 22 20 19 22
48 49 50 51 53 52 45 42 41 39 34 35 34 35 36 35 36 33 33 35 33 36 40 39 37 36 36 35 34 32 30 27 25 20 22 14 15 23 21 22 23 25 25 23
45 47 49 51 52 52 49 43 41 39 34 34 34 35 35 35 34 31 32 34 37 40 36 30 27 28 27 28 31 31 30 28 24 21 18 16 17 21 24 24 21 32 32 33
44 47 48 50 52 52 49 43 42 40 35 31 35 33 33 30 31 30 32 38 40 38 32 28 22 19 19 17 18 31 32 31 26 23 17 8 17 30 30 33 21 28 30 32
44 47 49 50 51 51 44 41 42 37 31 34 36 32 32 34 32 30 31 34 34 35 29 25 22 19 22 16 16 20 26 26 23 22 19 18 26 26 33 19 17 24 27 30
45 48 49 49 51 46 43 40 42 37 32 33 37 36 33 33 32 28 31 31 31 30 26 24 23 22 22 21 21 17 17 18 20 20 17 13 25 21 13 19 23 22 23 30
47 49 49 45 44 44 42 37 40 39 35 33 37 37 39 37 35 32 32 27 29 30 26 26 24 22 23 21 17 21 18 21 21 21 19 26 26 25 26 27 25 27 27 30
47 45 44 44 43 42 40 38 37 36 33 32 33 32 32 32 30 31 26 28 30 27 28 25 24 19 21 17 17 18 19 29 20 22 17 21 24 26 25 27 27 24 26 26
45 44 44 44 42 40 39 36 35 34 31 28 28 29 27 29 30 27 29 30 31 30 27 22 22 15 23 17 15 15 14 16 14 14 15 16 16 18 18 20 17 18 20 22
43 43 41 40 38 37 35 35 34 29 24 24 26 23 25 27 28 28 29 28 27 25 23 23 21 23 23 22 22 16 17 13 13 13 15 16 16 17 18 19 19 19 22 23
41 40 39 38 36 31 21 17 31 32 25 15 12 23 24 24 28 28 27 26 26 25 23 23 24 25 21 18 16 13 14 18 19 17 19 19 20 21 21 21 21 23 23 25
38 39 38 37 36 36 28 22 30 33 27 13 13 16 22 24 24 25 27 29 28 25 25 24 24 24 26 23 16 15 18 19 20 20 21 20 21 21 22 23 22 24 26 28
36 36 36 35 33 32 29 33 32 28 23 19 12 14 18 23 19 20 27 26 27 27 25 26 24 25 26 21 19 19 19 21 21 22 22 23 23 23 22 24 31 34 34 35
34 34 33 32 32 30 32 35 30 30 20 14 15 7 11 22 21 26 25 27 21 25 24 23 23 22 20 20 21 23 25 25 25 32 34 33 32 31 32 33 33 33 33 32
31 29 26 27 33 35 29 21 17 20 23 23 20 22 16 17 17 15 15 22 20 15 19 25 22 18 21 23 29 32 30 31 30 29 27 28 29 29 29 29 29 29 29 29
29 28 28 32 32 24 21 17 15 17 16 21 23 21 17 23 15 16 19 17 21 15 18 21 19 19 26 33 31 31 31 28 27 27 27 27 27 28 28 28 28 29 29 29
31 30 28 25 19 15 12 18 20 16 16 22 21 22 24 26 28 23 22 17 20 12 22 21 18 23 30 31 31 31 31 30 27 27 26 28 27 28 27 27 27 28 29 29
25 22 19 15 16 6 4 6 15 17 21 24 26 23 26 27 27 23 22 18 16 21 18 14 21 26 27 28 29 28 29 28 28 28 28 27 27 27 27 27 27 28 28 29
16 11 8 8 7 12 13 13 16 20 24 26 26 25 24 25 23 23 19 19 21 16 13 15 23 25 26 27 27 25 25 27 27 28 30 29 28 28 27 27 28 27 27 26
17 9 6 10 16 19 19 21 23 25 25 24 25 25 25 23 21 22 20 19 16 17 17 23 24 25 25 24 26 25 25 26 27 26 28 28 27 27 28 28 28 27 26 25
23 19 15 20 17 17 19 21 19 24 26 27 27 22 20 19 20 18 17 18 15 20 23 25 24 22 23 23 24 26 26 26 26 25 26 25 25 27 28 28 27 25 25 24
20 19 19 17 17 16 17 19 20 28 27 21 22 20 17 23 19 18 22 20 22 23 23 25 22 22 23 24 25 26 26 26 26 25 25 27 28 28 27 26 26 25 25 24

GFSNW_sfc_30mbdewp_204.txt.gz
Dewpoint
51 53 54 54 55 55 52 47 43 49 52 42 42 40 41 42 36 33 33 32 33 36 36 29 28 30 29 24 19 17 18 19 16 16 15 16 14 14 13 12 14 15 16 20
50 51 53 53 54 54 50 45 42 49 49 38 37 40 40 39 36 35 35 33 32 32 30 33 35 34 28 22 22 20 21 19 18 23 19 19 17 17 16 17 18 17 19 19
48 49 52 52 53 53 51 42 35 41 42 42 40 39 38 37 38 36 35 35 35 35 34 34 35 34 32 27 24 31 29 25 25 24 25 26 19 16 16 17 19 20 20 21
47 48 51 53 53 53 50 42 36 37 34 37 39 39 37 37 36 36 36 35 35 35 33 34 33 34 35 36 35 34 34 29 28 26 25 25 23 21 20 21 23 22 22 19
46 47 48 52 53 53 50 38 37 39 37 37 38 38 38 37 37 35 34 35 35 35 35 35 33 33 33 32 35 34 35 29 27 27 26 23 21 21 20 19 19 19 18 16
46 47 49 51 52 52 48 43 43 41 37 37 37 36 37 37 38 38 38 36 36 35 35 37 37 37 36 36 34 33 32 31 28 23 21 20 19 19 18 18 19 18 15 15
46 46 47 48 51 52 48 43 43 40 33 36 35 36 37 38 38 37 36 37 35 36 39 39 37 37 36 36 36 37 31 31 30 23 19 15 16 19 18 17 18 18 19 21
46 46 46 48 49 51 49 45 44 41 36 36 37 36 37 37 38 35 33 35 38 40 37 31 28 28 29 31 34 35 35 32 27 21 17 15 14 15 16 16 15 29 28 29
46 45 45 46 47 49 50 47 46 44 38 35 38 37 37 33 32 30 31 37 40 38 33 30 24 21 21 20 22 30 33 33 29 23 17 9 16 26 28 28 15 26 23 20
45 45 45 46 46 47 48 46 45 42 36 38 38 35 34 36 34 31 31 35 34 37 31 27 24 23 20 18 15 23 27 28 24 22 20 17 15 25 28 17 14 21 19 19
44 44 44 45 46 47 47 43 44 44 34 34 38 38 34 35 34 30 32 32 32 31 29 28 26 22 22 19 16 19 22 21 21 22 19 16 22 22 20 21 23 21 18 19
43 43 44 44 45 46 48 38 42 39 34 32 39 39 39 38 37 34 35 33 31 32 29 28 26 24 25 21 16 22 17 17 15 17 14 26 25 24 24 23 21 22 19 18
42 43 43 44 45 47 45 39 39 37 33 32 33 31 37 38 39 38 31 32 32 30 32 29 26 23 22 19 17 17 19 25 21 17 14 13 14 16 15 18 17 15 17 18
42 42 43 43 45 47 41 39 40 38 35 28 28 37 34 33 33 32 33 32 32 30 28 25 24 17 19 13 12 14 13 16 15 14 14 12 10 10 12 13 14 15 17 15
41 42 44 45 45 41 38 37 37 37 33 27 28 33 33 32 32 31 32 30 26 23 24 23 17 16 15 13 13 11 10 10 9 11 11 11 11 14 17 17 17 17 18 18
44 43 41 40 40 39 37 31 34 36 33 30 23 30 31 31 30 29 29 28 27 24 25 23 21 22 15 14 10 8 7 11 13 12 15 16 18 19 20 20 21 21 20 21
40 40 39 38 37 36 32 29 32 31 32 27 23 23 24 27 27 26 28 30 27 23 25 23 20 21 23 17 13 8 12 14 15 17 19 19 20 20 21 21 21 22 23 25
39 37 36 35 33 29 25 31 30 30 21 21 17 18 19 24 18 22 28 26 25 26 23 26 21 21 21 15 11 13 16 17 19 21 21 27 32 32 29 26 26 28 28 30
35 36 35 33 32 26 29 33 31 31 29 20 19 15 15 24 26 28 28 27 23 27 22 19 20 14 17 15 14 16 23 29 31 31 33 30 30 30 32 31 30 30 31 31
34 32 29 27 31 35 29 24 23 25 25 23 18 19 16 19 20 19 22 25 17 15 16 21 19 14 13 15 18 29 31 31 31 29 27 26 26 27 27 27 28 28 28 29
32 30 28 32 30 24 25 20 19 18 17 18 19 14 14 20 17 20 21 18 19 13 16 17 14 11 24 32 31 32 31 32 32 28 26 26 26 25 25 26 27 27 28 28
31 31 31 26 23 19 16 17 16 14 13 20 18 23 23 27 27 22 24 19 19 11 21 19 12 25 29 29 29 30 30 30 31 31 25 24 25 25 25 26 27 26 28 29
27 24 21 20 16 11 7 9 13 16 21 23 24 24 26 27 25 23 21 17 14 20 18 12 12 25 26 27 27 29 29 29 29 30 30 29 28 29 29 27 29 29 29 30
21 16 8 13 13 14 14 13 18 24 24 24 25 25 23 25 22 22 18 16 18 15 13 12 20 27 27 27 29 28 27 26 27 27 27 27 28 27 28 30 29 29 29 29
19 16 12 17 21 23 26 26 24 27 28 28 26 24 23 22 21 21 18 18 13 12 11 20 26 26 24 24 24 24 24 25 25 24 24 25 27 27 28 30 30 29 28 28
21 20 18 21 20 22 25 26 26 27 28 28 26 22 20 18 18 17 15 14 11 17 25 26 25 23 22 23 23 24 25 24 24 23 23 24 27 27 27 29 28 28 28 27
18 22 24 23 22 22 26 27 25 30 27 23 21 19 17 20 17 15 17 16 22 24 26 24 22 21 22 23 24 24 23 23 23 22 24 25 27 27 25 25 27 28 27 27

GFSNW_sfc_30mbdewp_207.txt.gz
Dewpoint
50 51 53 54 54 54 52 48 43 52 54 44 44 42 42 42 40 42 39 38 39 39 39 38 36 35 33 31 28 23 27 28 26 26 26 24 19 18 18 17 16 17 18 21
48 49 51 53 53 53 51 45 44 50 52 40 40 42 42 42 40 36 39 37 38 39 39 37 37 37 37 35 37 31 30 27 23 24 26 24 19 18 18 18 19 18 19 22
48 48 50 51 53 53 52 42 37 42 45 44 43 41 41 41 40 39 39 37 36 37 35 37 37 38 39 36 31 33 29 29 27 26 27 32 27 22 20 19 19 20 21 22
47 47 48 50 52 53 51 43 38 40 36 39 41 42 41 40 39 39 38 37 37 37 36 37 36 38 37 37 34 31 32 31 30 28 27 28 27 27 26 21 18 18 22 21
47 47 47 49 50 51 47 41 38 40 39 39 40 40 40 39 40 37 36 37 37 38 37 37 36 37 36 34 36 35 38 30 30 29 30 28 27 26 26 27 26 22 22 23
46 47 47 47 49 50 44 46 45 42 39 38 38 38 39 40 40 39 39 38 38 38 39 40 41 40 38 37 35 35 35 32 30 26 25 26 26 25 23 22 21 21 21 22
46 47 47 47 48 48 46 44 44 40 36 38 38 38 39 39 40 39 39 41 39 41 41 39 38 38 38 38 37 36 33 32 32 26 24 19 21 20 17 18 20 18 15 15
46 47 47 47 47 46 46 47 44 42 38 38 38 38 39 40 41 42 38 39 41 40 37 31 29 29 30 31 35 36 36 33 29 24 21 19 17 17 16 15 13 14 15 18
46 46 46 46 47 47 46 44 47 45 39 37 39 38 39 38 38 33 33 38 41 39 33 31 26 24 24 28 28 36 35 34 31 28 21 15 18 21 22 21 15 15 19 24
46 46 46 46 46 46 44 42 46 46 38 39 41 38 38 39 36 32 32 36 36 38 31 29 28 28 25 24 22 27 29 29 26 25 24 21 18 23 24 17 13 22 22 21
46 46 46 46 46 45 44 43 46 43 39 37 39 40 39 37 36 32 31 31 31 31 30 31 30 29 25 21 20 21 25 26 25 25 24 20 21 24 22 21 25 25 23 21
45 46 46 46 45 44 45 40 45 43 38 34 39 39 41 41 39 36 34 34 33 35 33 33 33 28 29 24 23 22 21 21 21 21 19 26 23 21 23 22 20 18 18 17
45 45 45 45 45 44 43 41 41 38 33 32 34 33 37 39 41 40 33 35 38 37 36 34 33 29 27 26 24 22 21 22 22 21 20 20 20 20 16 13 11 11 13 13
44 44 45 45 45 44 44 41 42 39 35 29 29 35 33 39 41 40 39 37 35 34 34 33 31 28 24 24 20 19 19 19 20 21 18 13 12 12 12 11 12 12 13 14
43 44 44 44 44 44 44 42 41 41 37 29 30 33 35 39 39 38 37 37 36 34 31 30 25 19 16 14 12 11 13 12 13 12 12 12 12 12 13 15 16 17 17 17
42 44 44 44 44 42 38 33 37 40 37 31 26 32 33 37 36 35 34 33 31 29 29 27 22 19 12 12 9 10 10 10 10 9 11 13 15 17 18 19 18 19 19 19
42 43 43 44 43 41 35 34 36 40 38 30 26 25 32 35 32 31 30 28 25 23 23 20 15 18 17 15 11 10 9 8 10 11 14 15 16 18 24 26 25 24 22 21
42 42 42 42 40 38 36 39 39 38 34 31 25 24 27 27 24 25 27 23 21 21 19 21 15 14 18 15 10 10 9 12 13 16 19 22 29 29 30 31 32 31 29 28
38 39 38 37 35 31 32 35 35 38 35 27 24 21 20 25 22 25 26 23 21 25 19 14 13 12 14 15 13 11 14 24 26 28 30 31 29 28 27 28 28 28 28 29
37 35 32 29 32 35 35 32 29 28 24 24 22 19 18 22 20 21 23 25 17 16 15 15 18 14 13 11 23 27 29 29 29 29 32 29 25 25 25 26 26 27 27 28
36 31 26 32 34 32 28 26 22 17 15 16 15 16 17 17 16 19 19 16 17 12 14 14 12 9 25 30 32 33 32 30 28 30 32 28 25 24 25 25 25 26 26 27
32 30 31 28 27 22 19 14 13 11 12 14 12 14 21 26 22 20 22 17 17 10 19 17 13 24 30 30 30 30 29 29 29 30 32 30 26 25 25 25 25 25 27 28
22 24 25 24 18 12 7 9 10 15 19 22 23 22 24 24 22 21 18 17 14 15 16 12 11 25 26 26 27 28 28 27 28 29 30 29 28 28 27 26 29 29 30 31
22 18 14 17 17 16 11 11 16 19 21 20 23 23 23 25 21 21 18 14 17 15 14 11 19 26 27 27 27 27 26 27 26 27 28 27 27 27 28 30 31 30 28 28
19 19 17 19 26 25 24 23 23 26 29 28 26 25 22 20 21 19 17 16 13 10 9 18 29 28 27 26 25 24 24 25 25 24 25 26 26 27 27 29 31 29 29 28
19 19 20 22 24 27 28 28 28 28 29 27 25 22 20 19 18 16 14 10 8 12 26 29 27 25 24 24 24 23 24 24 23 23 23 22 26 26 24 25 27 28 29 27
18 23 25 24 24 26 27 26 26 28 25 23 20 19 15 19 15 13 14 13 24 27 28 26 24 23 24 24 24 24 24 22 22 21 22 22 23 24 23 21 22 26 29 28